Weather History for Newport News, VA

Change the Weather History Date:

Tuesday, January 17, 2012

  Actual Average Record
Temperature  
Mean Temperature 54 °F -  
Max Temperature 62 °F 48 °F 72 °F (1949)
Min Temperature 45 °F 27 °F 5 °F (1977)
Degree Days  
Heating Degree Days 12    
Growing Degree Days 4 (Base 50)    
Moisture  
Dew Point 44 °F    
Average Humidity 66    
Maximum Humidity 82    
Minimum Humidity 56    
Precipitation  
Precipitation 0.00 in - - ()
Sea Level Pressure  
Sea Level Pressure 30.02 in    
Wind  
Wind Speed 17 mph (SW)    
Max Wind Speed 30 mph    
Max Gust Speed 38 mph    
Visibility 10 miles    
Events      
Averages and records for this station are not official NWS values.
T = Trace of Precipitation, MM = Missing Value Source: NWS Daily Summary

Daily Weather History Graph

Daily Weather History Graph

Search for Another Location

Airport:

Trip Planner

Search our weather history database for the weather conditions in past years. The results will help you decide how hot, cold, wet, or windy it might be!

Date:

Astronomy

Jan. 17, 2012 Rise Set
Actual Time 7:18 AM EST 5:14 PM EST
Civil Twilight 6:49 AM EST 5:42 PM EST
Nautical Twilight 6:17 AM EST 6:14 PM EST
Astronomical Twilight 5:46 AM EST 6:45 PM EST
Moon 1:36 AM EST (1/17) 12:05 PM EST (1/17)
Length of Visible Light 10h 52m
Length of Day
9h 56m
Waning Crescent, 35% of the Moon is Illuminated
Jan 17
Waning Crescent
Jan 23
New
Jan 30
First Quarter
Feb 7
Full
Feb 14
Last Quarter

Hourly Weather History & Observations

Time (EST) Temp. Windchill Dew Point Humidity Pressure Visibility Wind Dir Wind Speed Gust Speed Precip Events Conditions
12:54 AM 45.0 °F 38.2 °F 33.1 °F 63% 30.27 in 10.0 mi SSW 15.0 mph - 0.00 in   Overcast
1:54 AM 46.0 °F 39.9 °F 35.1 °F 66% 30.26 in 10.0 mi SW 13.8 mph - 0.00 in   Overcast
2:54 AM 46.9 °F - 34.0 °F 61% 30.25 in 10.0 mi SW 15.0 mph 24.2 mph N/A   Overcast
3:54 AM 46.9 °F - 35.1 °F 63% 30.22 in 10.0 mi SW 15.0 mph - 0.00 in   Overcast
4:54 AM 48.0 °F - 39.0 °F 71% 30.19 in 10.0 mi SW 12.7 mph - N/A   Overcast
5:54 AM 48.9 °F - 41.0 °F 74% 30.15 in 10.0 mi SW 17.3 mph - N/A   Partly Cloudy
6:54 AM 48.2 °F - 42.8 °F 82% 30.13 in 10.0 mi SW 11.5 mph - N/A   Scattered Clouds
7:54 AM 50.0 °F - 44.1 °F 80% 30.12 in 10.0 mi SW 12.7 mph - N/A   Clear
8:54 AM 54.0 °F - 46.0 °F 75% 30.12 in 10.0 mi WSW 16.1 mph 23.0 mph N/A   Clear
9:54 AM 57.0 °F - 46.9 °F 69% 30.11 in 10.0 mi SW 21.9 mph 28.8 mph N/A   Overcast
10:54 AM 61.0 °F - 46.9 °F 60% 30.08 in 10.0 mi WSW 19.6 mph 31.1 mph N/A   Scattered Clouds
11:54 AM 62.1 °F - 46.9 °F 58% 30.02 in 10.0 mi WSW 29.9 mph 38.0 mph N/A   Clear
12:54 PM 62.1 °F - 46.9 °F 58% 29.99 in 10.0 mi SW 23.0 mph 34.5 mph N/A   Clear
1:54 PM 62.1 °F - 46.0 °F 56% 29.95 in 10.0 mi WSW 20.7 mph 35.7 mph N/A   Partly Cloudy
2:54 PM 61.0 °F - 46.9 °F 60% 29.93 in 10.0 mi SW 23.0 mph 35.7 mph 0.00 in   Mostly Cloudy
3:54 PM 61.0 °F - 48.9 °F 64% 29.91 in 10.0 mi SW 23.0 mph 32.2 mph N/A   Mostly Cloudy
4:54 PM 60.1 °F - 48.0 °F 64% 29.90 in 10.0 mi SW 17.3 mph - N/A   Clear
5:54 PM 60.1 °F - 46.9 °F 62% 29.89 in 10.0 mi SW 11.5 mph - N/A   Clear
6:54 PM 59.0 °F - 46.9 °F 64% 29.90 in 10.0 mi SW 12.7 mph - N/A   Clear
7:54 PM 59.0 °F - 48.0 °F 67% 29.86 in 10.0 mi SSW 15.0 mph - N/A   Clear
8:54 PM 59.0 °F - 48.0 °F 67% 29.87 in 10.0 mi SW 16.1 mph 26.5 mph N/A   Mostly Cloudy
9:54 PM 60.1 °F - 48.9 °F 67% 29.84 in 10.0 mi SW 18.4 mph 26.5 mph N/A   Mostly Cloudy
10:54 PM 60.1 °F - 48.9 °F 67% 29.82 in 10.0 mi SW 19.6 mph 29.9 mph N/A   Clear
11:54 PM 60.1 °F - 51.1 °F 72% 29.81 in 10.0 mi SW 19.6 mph 32.2 mph N/A   Overcast